• In Spain
  • List of Countries
  • For 7 days
  • Water Temperature
  • Satellite Maps
  • Weather Map
  • Weather Widgets
  • user-avatar
    Login

    Hourly Weather Ondjiwa

    Today, 21 July, Saturday

    Time Temperature Precipitation Wind Pressure Humidity
    00:00 +14°C° 0 mm 3 mps 669 mmHg 48%
    01:00 +13°C° 0 mm 3 mps 669 mmHg 50%
    02:00 +13°C° 0 mm 3 mps 669 mmHg 51%
    03:00 +12°C° 0 mm 3 mps 669 mmHg 53%
    04:00 +12°C° 0 mm 3 mps 669 mmHg 55%
    05:00 +12°C° 0 mm 3 mps 669 mmHg 57%
    06:00 +11°C° 0 mm 3 mps 669 mmHg 58%
    07:00 +11°C° 0 mm 3 mps 670 mmHg 60%
    08:00 +15°C° 0 mm 4 mps 670 mmHg 51%
    09:00 +19°C° 0 mm 5 mps 671 mmHg 42%
    10:00 +22°C° 0 mm 6 mps 672 mmHg 34%
    11:00 +24°C° 0 mm 6 mps 671 mmHg 30%
    12:00 +26°C° 0 mm 5 mps 671 mmHg 26%
    13:00 +28°C° 0 mm 5 mps 671 mmHg 23%
    14:00 +28°C° 0 mm 4 mps 671 mmHg 22%
    15:00 +28°C° 0 mm 4 mps 670 mmHg 22%
    16:00 +28°C° 0 mm 3 mps 670 mmHg 21%
    17:00 +26°C° 0 mm 3 mps 669 mmHg 26%
    18:00 +22°C° 0 mm 3 mps 669 mmHg 31%
    19:00 +20°C° 0 mm 2 mps 669 mmHg 36%
    20:00 +19°C° 0 mm 2 mps 669 mmHg 39%
    21:00 +18°C° 0 mm 3 mps 670 mmHg 41%
    22:00 +17°C° 0 mm 3 mps 670 mmHg 44%
    23:00 +16°C° 0 mm 3 mps 670 mmHg 46%

    Tomorrow, 22 July, Sunday

    Time Temperature Precipitation Wind Pressure Humidity
    00:00 +16°C° 0 mm 3 mps 670 mmHg 48%
    01:00 +14°C° 0 mm 3 mps 669 mmHg 50%
    02:00 +14°C° 0 mm 3 mps 669 mmHg 51%
    03:00 +13°C° 0 mm 3 mps 669 mmHg 51%
    04:00 +13°C° 0 mm 3 mps 669 mmHg 52%
    05:00 +13°C° 0 mm 3 mps 669 mmHg 52%
    06:00 +12°C° 0 mm 3 mps 670 mmHg 52%
    07:00 +12°C° 0 mm 3 mps 670 mmHg 52%
    08:00 +17°C° 0 mm 4 mps 671 mmHg 44%
    09:00 +20°C° 0 mm 5 mps 671 mmHg 36%
    10:00 +24°C° 0 mm 6 mps 672 mmHg 27%
    11:00 +26°C° 0 mm 5 mps 672 mmHg 24%
    12:00 +28°C° 0 mm 5 mps 672 mmHg 21%
    13:00 +30°C° 0 mm 4 mps 672 mmHg 18%
    14:00 +30°C° 0 mm 4 mps 671 mmHg 17%
    15:00 +30°C° 0 mm 3 mps 670 mmHg 17%
    16:00 +30°C° 0 mm 3 mps 670 mmHg 16%
    17:00 +28°C° 0 mm 3 mps 670 mmHg 20%
    18:00 +25°C° 0 mm 3 mps 669 mmHg 24%
    19:00 +21°C° 0 mm 3 mps 669 mmHg 28%
    20:00 +20°C° 0 mm 3 mps 670 mmHg 30%
    21:00 +19°C° 0 mm 3 mps 670 mmHg 32%
    22:00 +19°C° 0 mm 3 mps 670 mmHg 35%
    23:00 +18°C° 0 mm 3 mps 670 mmHg 36%

    Day after tomorrow, 23 July, Monday

    Time Temperature Precipitation Wind Pressure Humidity
    00:00 +18°C° 0 mm 4 mps 670 mmHg 37%
    01:00 +17°C° 0 mm 4 mps 670 mmHg 38%
    02:00 +17°C° 0 mm 4 mps 670 mmHg 38%
    03:00 +15°C° 0 mm 4 mps 670 mmHg 38%
    04:00 +15°C° 0 mm 4 mps 670 mmHg 38%
    05:00 +14°C° 0 mm 4 mps 670 mmHg 39%
    06:00 +14°C° 0 mm 4 mps 670 mmHg 39%
    07:00 +14°C° 0 mm 4 mps 671 mmHg 40%
    08:00 +17°C° 0 mm 5 mps 672 mmHg 35%
    09:00 +21°C° 0 mm 6 mps 672 mmHg 30%
    10:00 +24°C° 0 mm 7 mps 673 mmHg 25%
    11:00 +27°C° 0 mm 6 mps 673 mmHg 22%
    12:00 +29°C° 0 mm 5 mps 672 mmHg 20%
    13:00 +32°C° 0 mm 5 mps 672 mmHg 17%
    14:00 +32°C° 0 mm 4 mps 671 mmHg 17%
    15:00 +32°C° 0 mm 4 mps 671 mmHg 16%
    16:00 +32°C° 0 mm 4 mps 670 mmHg 16%
    17:00 +28°C° 0 mm 3 mps 670 mmHg 19%
    18:00 +25°C° 0 mm 3 mps 670 mmHg 23%
    19:00 +21°C° 0 mm 2 mps 670 mmHg 27%
    20:00 +20°C° 0 mm 3 mps 670 mmHg 29%
    21:00 +19°C° 0 mm 3 mps 671 mmHg 31%
    22:00 +18°C° 0 mm 3 mps 671 mmHg 33%
    23:00 +18°C° 0 mm 3 mps 671 mmHg 35%

    24 July, Tuesday

    Time Temperature Precipitation Wind Pressure Humidity
    00:00 +17°C° 0 mm 3 mps 671 mmHg 36%
    01:00 +16°C° 0 mm 3 mps 671 mmHg 37%
    02:00 +16°C° 0 mm 3 mps 671 mmHg 39%
    03:00 +14°C° 0 mm 3 mps 671 mmHg 41%
    04:00 +14°C° 0 mm 4 mps 670 mmHg 42%
    05:00 +13°C° 0 mm 3 mps 671 mmHg 44%
    06:00 +13°C° 0 mm 3 mps 671 mmHg 46%
    07:00 +13°C° 0 mm 3 mps 671 mmHg 48%
    08:00 +17°C° 0 mm 4 mps 672 mmHg 41%
    09:00 +21°C° 0 mm 5 mps 673 mmHg 34%
    10:00 +24°C° 0 mm 6 mps 674 mmHg 27%
    11:00 +27°C° 0 mm 6 mps 673 mmHg 24%
    12:00 +28°C° 0 mm 5 mps 673 mmHg 21%
    13:00 +29°C° 0 mm 4 mps 672 mmHg 19%
    14:00 +29°C° 0 mm 4 mps 672 mmHg 18%
    15:00 +30°C° 0 mm 4 mps 671 mmHg 18%
    16:00 +30°C° 0 mm 4 mps 671 mmHg 17%
    17:00 +27°C° 0 mm 3 mps 670 mmHg 21%
    18:00 +24°C° 0 mm 3 mps 670 mmHg 25%
    19:00 +21°C° 0 mm 2 mps 670 mmHg 29%
    20:00 +20°C° 0 mm 2 mps 670 mmHg 31%
    21:00 +19°C° 0 mm 2 mps 671 mmHg 33%
    22:00 +18°C° 0 mm 3 mps 671 mmHg 35%
    23:00 +17°C° 0 mm 3 mps 671 mmHg 36%

    25 July, Wednesday

    Time Temperature Precipitation Wind Pressure Humidity
    00:00 +16°C° 0 mm 3 mps 670 mmHg 38%
    01:00 +14°C° 0 mm 3 mps 670 mmHg 39%
    02:00 +14°C° 0 mm 3 mps 670 mmHg 41%
    03:00 +13°C° 0 mm 3 mps 670 mmHg 43%
    04:00 +12°C° 0 mm 3 mps 670 mmHg 44%
    05:00 +12°C° 0 mm 3 mps 670 mmHg 45%
    06:00 +12°C° 0 mm 3 mps 670 mmHg 46%
    07:00 +12°C° 0 mm 3 mps 671 mmHg 47%
    08:00 +17°C° 0 mm 4 mps 671 mmHg 39%
    09:00 +21°C° 0 mm 5 mps 672 mmHg 31%
    10:00 +26°C° 0 mm 6 mps 673 mmHg 23%
    11:00 +27°C° 0 mm 5 mps 672 mmHg 21%
    12:00 +29°C° 0 mm 5 mps 672 mmHg 18%
    13:00 +30°C° 0 mm 4 mps 671 mmHg 15%
    14:00 +30°C° 0 mm 4 mps 671 mmHg 15%
    15:00 +30°C° 0 mm 3 mps 670 mmHg 14%
    16:00 +31°C° 0 mm 3 mps 669 mmHg 13%
    17:00 +28°C° 0 mm 3 mps 669 mmHg 17%
    18:00 +25°C° 0 mm 2 mps 669 mmHg 20%
    19:00 +21°C° 0 mm 2 mps 669 mmHg 23%
    20:00 +20°C° 0 mm 2 mps 669 mmHg 25%
    21:00 +19°C° 0 mm 2 mps 669 mmHg 27%
    22:00 +18°C° 0 mm 2 mps 669 mmHg 28%
    23:00 +18°C° 0 mm 3 mps 669 mmHg 29%

    26 July, Thursday

    Time Temperature Precipitation Wind Pressure Humidity
    00:00 +17°C° 0 mm 3 mps 669 mmHg 30%
    01:00 +16°C° 0 mm 3 mps 669 mmHg 31%
    02:00 +14°C° 0 mm 3 mps 668 mmHg 32%
    03:00 +14°C° 0 mm 3 mps 668 mmHg 32%
    04:00 +13°C° 0 mm 3 mps 668 mmHg 33%
    05:00 +13°C° 0 mm 3 mps 668 mmHg 34%
    06:00 +14°C° 0 mm 2 mps 669 mmHg 36%
    07:00 +13°C° 0 mm 2 mps 669 mmHg 37%
    08:00 +17°C° 0 mm 3 mps 670 mmHg 31%
    09:00 +21°C° 0 mm 4 mps 671 mmHg 24%
    10:00 +26°C° 0 mm 5 mps 671 mmHg 18%
    11:00 +28°C° 0 mm 4 mps 671 mmHg 16%
    12:00 +30°C° 0 mm 4 mps 670 mmHg 14%
    13:00 +31°C° 0 mm 3 mps 670 mmHg 12%
    14:00 +33°C° 0 mm 3 mps 669 mmHg 11%
    15:00 +32°C° 0 mm 2 mps 669 mmHg 11%
    16:00 +32°C° 0 mm 1 mps 668 mmHg 10%
    17:00 +29°C° 0 mm 1 mps 668 mmHg 12%
    18:00 +26°C° 0 mm 1 mps 667 mmHg 15%
    19:00 +20°C° 0 mm 0 mps 667 mmHg 18%
    20:00 +22°C° 0 mm 1 mps 667 mmHg 19%
    21:00 +21°C° 0 mm 1 mps 668 mmHg 20%
    22:00 +19°C° 0 mm 2 mps 668 mmHg 21%
    23:00 +18°C° 0 mm 2 mps 668 mmHg 23%
    Show more